Location: Ao Por, Phuket, Thailand
(8.0591°N, 98.4362°E)
Time: 03:57:14
(UTC+07:00)

N. Korean satellite - Pass Details

Date: 28 September 2021
Orbit: 450 x 495 km, 97.3° (Epoch: 23 October)

Event Time Altitude Azimuth Distance (km) Brightness Sun altitude
Rises 04:35:21 0° 41° (NE) 2,551 10.8 -25.4°
Reaches altitude 10° 04:38:14 10° 67° (ENE) 1,678 10.2 -24.7°
Maximum altitude 04:40:10 14° 100° (E) 1,452 9.9 -24.3°
Drops below altitude 10° 04:42:07 10° 132° (SE) 1,686 9.9 -23.8°
Sets 04:45:01 0° 158° (SSE) 2,571 10.5 -23.1°
